Weather reports worldwide

Advertisment
Tyndrum, United Kingdom (99020): temperature & dewpoint: 17.05.2018 02:00:00 - 23.05.2018 02:00:00 (BST)Tyndrum, United Kingdom (99020): precipitation: 17.05.2018 02:00:00 - 23.05.2018 02:00:00 (BST)
Date & Time tt [°C] td [°C] rr [mm]
23.05.2018 02:00:00 9,4 7,4 0,0
23.05.2018 01:00:00 9,8 7,5 0,0
23.05.2018 00:00:00 10,1 7,6 0,0
22.05.2018 23:00:00 10,8 7,9 0,0
22.05.2018 22:00:00 11,6 8,1 0,0
22.05.2018 21:00:00 12,2 8,8 0,0
22.05.2018 20:00:00 13,2 8,7 0,0
22.05.2018 19:00:00 13,5 8,8 0,0
22.05.2018 18:00:00 14,1 7,6 0,0
22.05.2018 17:00:00 14,1 7,4 0,0
22.05.2018 16:00:00 14,0 7,7 0,0
22.05.2018 15:00:00 14,0 7,0 0,0
22.05.2018 14:00:00 13,5 7,1 0,0
22.05.2018 13:00:00 13,5 6,9 0,0
22.05.2018 12:00:00 11,7 6,6 0,0
22.05.2018 11:00:00 10,4 7,4 0,0
22.05.2018 10:00:00 8,9 7,1 0,0
22.05.2018 09:00:00 8,1 6,4 0,0
22.05.2018 08:00:00 7,9 6,1 0,0
22.05.2018 07:00:00 7,7 6,2 0,0
22.05.2018 06:00:00 7,4 6,3 0,0
22.05.2018 05:00:00 7,3 6,2 0,2
22.05.2018 04:00:00 8,0 6,1 0,0
22.05.2018 03:00:00 7,7 6,3 0,2
22.05.2018 02:00:00 7,9 6,5 0,4
22.05.2018 01:00:00 8,4 6,0 0,8
22.05.2018 00:00:00 9,7 6,3 0,0
21.05.2018 23:00:00 9,8 6,2 0,0
21.05.2018 22:00:00 9,9 6,8 0,0
21.05.2018 21:00:00 9,5 8,0 0,0
21.05.2018 20:00:00 9,4 8,3 0,0
21.05.2018 19:00:00 9,7 8,3 0,0
21.05.2018 18:00:00 10,3 8,2 0,0
21.05.2018 17:00:00 12,1 9,5 0,0
21.05.2018 16:00:00 12,9 9,9 0,0
21.05.2018 15:00:00 13,6 9,5 0,0
21.05.2018 14:00:00 14,0 9,9 0,0
21.05.2018 13:00:00 13,4 9,7 0,0
21.05.2018 12:00:00 12,5 9,6 0,0
21.05.2018 11:00:00 12,0 9,0 0,0
21.05.2018 10:00:00 11,6 8,9 0,0
21.05.2018 09:00:00 11,2 8,9 0,0
21.05.2018 08:00:00 10,6 9,5 0,0
21.05.2018 07:00:00 10,0 9,1 0,0
21.05.2018 06:00:00 9,6 9,2 0,0
21.05.2018 05:00:00 9,7 9,3 0,2
21.05.2018 04:00:00 9,8 9,5 1,0
21.05.2018 03:00:00 9,8 9,3 2,2
21.05.2018 02:00:00 10,0 9,3 1,6
21.05.2018 01:00:00 10,6 9,9 0,2
21.05.2018 00:00:00 10,8 9,8 0,0
20.05.2018 23:00:00 11,1 10,1 0,0
20.05.2018 22:00:00 11,1 9,8 0,0
20.05.2018 21:00:00 11,4 9,7 0,0
20.05.2018 20:00:00 11,5 9,4 0,0
20.05.2018 19:00:00 11,5 9,9 0,2
20.05.2018 18:00:00 11,6 10,1 0,4
20.05.2018 17:00:00 12,6 11,4 1,0
20.05.2018 16:00:00 12,2 10,8 0,2
20.05.2018 15:00:00 12,5 11,0 0,2
20.05.2018 14:00:00 13,0 10,5 0,0
20.05.2018 13:00:00 12,7 9,8 0,0
20.05.2018 12:00:00 13,1 10,3 0,0
20.05.2018 11:00:00 13,6 10,4 0,0
20.05.2018 10:00:00 11,1 8,8 0,0
20.05.2018 09:00:00 11,1 8,0 0,0
20.05.2018 08:00:00 11,1 7,4 0,0
20.05.2018 07:00:00 11,2 7,0 0,0
20.05.2018 06:00:00 11,2 6,9 0,0
20.05.2018 05:00:00 11,1 6,9 0,0
20.05.2018 04:00:00 11,3 7,1 0,0
20.05.2018 03:00:00 11,8 6,8 0,0
20.05.2018 02:00:00 11,9 6,9 0,0
20.05.2018 01:00:00 12,1 6,9 0,0
20.05.2018 00:00:00 12,1 6,6 0,0
19.05.2018 23:00:00 12,6 6,2 0,0
19.05.2018 22:00:00 13,1 5,6 0,0
19.05.2018 21:00:00 13,4 5,4 0,0
19.05.2018 20:00:00 14,7 5,1 0,0
19.05.2018 19:00:00 15,0 4,8 0,0
19.05.2018 18:00:00 15,7 6,0 0,0
19.05.2018 17:00:00 16,6 6,8 0,0
19.05.2018 16:00:00 17,1 6,5 0,0
19.05.2018 15:00:00 18,0 8,1 0,0
19.05.2018 14:00:00 17,9 7,5 0,0
19.05.2018 13:00:00 16,8 6,4 0,0
19.05.2018 12:00:00 16,8 6,8 0,0
19.05.2018 11:00:00 15,9 6,3 0,0
19.05.2018 10:00:00 13,6 6,1 0,0
19.05.2018 09:00:00 11,1 8,5 0,0
19.05.2018 08:00:00 8,2 8,1 0,0
19.05.2018 07:00:00 5,3 5,1 0,0
19.05.2018 06:00:00 4,0 3,6 0,0
19.05.2018 05:00:00 4,0 3,5 0,0
19.05.2018 04:00:00 4,3 3,7 0,0
19.05.2018 03:00:00 4,9 4,6 0,0
19.05.2018 02:00:00 3,7 3,0 0,0
19.05.2018 01:00:00 4,4 3,2 0,0
19.05.2018 00:00:00 5,5 4,2 0,0
18.05.2018 23:00:00 7,0 5,5 0,0
18.05.2018 22:00:00 9,1 5,9 0,0
18.05.2018 21:00:00 12,3 6,9 0,0
18.05.2018 20:00:00 14,2 6,9 0,0
18.05.2018 19:00:00 15,2 6,2 0,0
18.05.2018 18:00:00 15,4 6,8 0,0
18.05.2018 17:00:00 17,1 7,8 0,0
18.05.2018 16:00:00 16,9 7,3 0,0
18.05.2018 15:00:00 15,2 5,8 0,0
18.05.2018 14:00:00 15,2 6,7 0,0
18.05.2018 13:00:00 13,2 4,2 0,0
18.05.2018 12:00:00 13,9 4,5 0,0
18.05.2018 11:00:00 12,6 3,3 0,0
18.05.2018 10:00:00 11,8 4,6 0,0
18.05.2018 09:00:00 9,7 5,9 0,0
18.05.2018 08:00:00 7,7 4,0 0,0
18.05.2018 07:00:00 3,5 2,7 0,0
18.05.2018 06:00:00 2,1 1,5 0,0
18.05.2018 05:00:00 2,2 1,4 0,0
18.05.2018 04:00:00 2,4 1,5 0,0
18.05.2018 03:00:00 2,6 1,6 0,0
18.05.2018 02:00:00 3,7 2,3 0,0
18.05.2018 01:00:00 5,3 3,0 0,0
18.05.2018 00:00:00 7,8 5,5 0,0
17.05.2018 23:00:00 8,2 5,7 0,0
17.05.2018 22:00:00 9,2 5,2 0,0
17.05.2018 21:00:00 13,2 5,3 0,0
17.05.2018 20:00:00 14,5 5,8 0,0
17.05.2018 19:00:00 16,0 5,5 0,0
17.05.2018 18:00:00 16,1 4,3 0,0
17.05.2018 17:00:00 16,3 3,8 0,0
17.05.2018 16:00:00 16,4 5,4 0,0
17.05.2018 15:00:00 16,4 4,5 0,0
17.05.2018 14:00:00 16,0 3,9 0,0
17.05.2018 13:00:00 14,5 4,1 0,0
17.05.2018 12:00:00 14,3 4,8 0,0
17.05.2018 11:00:00 13,1 4,0 0,0
17.05.2018 10:00:00 11,0 4,4 0,0
17.05.2018 09:00:00 8,1 4,6 0,0
17.05.2018 08:00:00 4,8 4,5 0,0
17.05.2018 07:00:00 2,4 2,2 0,0
17.05.2018 06:00:00 0,8 0,5 0,0
17.05.2018 05:00:00 0,5 -0,1 0,0
17.05.2018 04:00:00 0,9 0,3 0,0
17.05.2018 03:00:00 1,6 0,8 0,0
17.05.2018 02:00:00 2,4 1,4 0,0

tt = temperature
td = dewpoint
rr = precipitation

Next stations